AUA75U LATI-LOWW

Flight info

Callsign AUA75U
Flight time 1h 17m
Altitude 32000
Route INLOT DCT RETRA DCT OBUTI OBUTI2W
Aircraft B738/M-SDE2E3FGHIRWXY/LB1

Departure

Time 2026-04-30 12:42
Airport Tirana International Airport Mother Teresa (LATI)

Arrival

Time 2026-04-30 13:59
Airport Vienna International Airport (LOWW)
Time Latitude Longitude Altitude Speed Heading
2026-04-30 12:30 41.42223 19.71486 114 ft 0 kts 264°
2026-04-30 12:34 41.42226 19.71499 114 ft 4 kts 223°
2026-04-30 12:34 41.42243 19.71503 114 ft 0 kts 152°
2026-04-30 12:34 41.42241 19.71505 114 ft 2 kts 151°
2026-04-30 12:34 41.42210 19.71531 114 ft 6 kts 145°
2026-04-30 12:35 41.42176 19.71552 115 ft 5 kts 169°
2026-04-30 12:35 41.42137 19.71560 115 ft 6 kts 173°
2026-04-30 12:35 41.42065 19.71570 115 ft 12 kts 175°
2026-04-30 12:35 41.41976 19.71579 116 ft 12 kts 173°
2026-04-30 12:36 41.41890 19.71592 117 ft 12 kts 174°
2026-04-30 12:36 41.41799 19.71601 119 ft 13 kts 178°
2026-04-30 12:36 41.41703 19.71613 119 ft 14 kts 173°
2026-04-30 12:36 41.41604 19.71628 120 ft 13 kts 173°
2026-04-30 12:37 41.41508 19.71637 122 ft 13 kts 175°
2026-04-30 12:37 41.41411 19.71652 122 ft 14 kts 170°
2026-04-30 12:37 41.41308 19.71666 122 ft 14 kts 175°
2026-04-30 12:37 41.41210 19.71675 124 ft 13 kts 174°
2026-04-30 12:38 41.41114 19.71690 125 ft 14 kts 174°
2026-04-30 12:38 41.41016 19.71702 125 ft 14 kts 172°
2026-04-30 12:38 41.40915 19.71724 125 ft 14 kts 171°
2026-04-30 12:38 41.40815 19.71747 125 ft 14 kts 172°
2026-04-30 12:39 41.40713 19.71764 125 ft 14 kts 173°
2026-04-30 12:39 41.40611 19.71780 126 ft 14 kts 176°
2026-04-30 12:39 41.40521 19.71788 127 ft 13 kts 175°
2026-04-30 12:39 41.40430 19.71805 129 ft 13 kts 165°
2026-04-30 12:40 41.40348 19.71864 129 ft 13 kts 143°
2026-04-30 12:40 41.40277 19.71939 130 ft 12 kts 135°
2026-04-30 12:40 41.40245 19.72038 130 ft 12 kts 95°
2026-04-30 12:40 41.40252 19.72148 132 ft 11 kts 80°
2026-04-30 12:41 41.40305 19.72211 132 ft 11 kts 10°
2026-04-30 12:41 41.40610 19.72173 129 ft 83 kts 352°
2026-04-30 12:41 41.41421 19.72063 124 ft 150 kts 354°
2026-04-30 12:41 41.42627 19.71885 356 ft 185 kts 352°
2026-04-30 12:42 41.43915 19.71695 1083 ft 196 kts 356°
2026-04-30 12:42 41.45307 19.71592 1494 ft 199 kts 356°
2026-04-30 12:42 41.46695 19.71476 1982 ft 207 kts 355°
2026-04-30 12:42 41.48152 19.71325 2458 ft 212 kts 355°
2026-04-30 12:43 41.49615 19.71154 2948 ft 213 kts 354°
2026-04-30 12:43 41.51071 19.70969 3541 ft 213 kts 353°
2026-04-30 12:43 41.52561 19.70793 4146 ft 218 kts 353°
2026-04-30 12:43 41.54092 19.70607 4647 ft 225 kts 353°
2026-04-30 12:44 41.55657 19.70424 5083 ft 225 kts 353°
2026-04-30 12:44 41.57177 19.69981 5524 ft 227 kts 334°
2026-04-30 12:44 41.58590 19.69006 5999 ft 231 kts 330°
2026-04-30 12:44 41.60088 19.68010 6460 ft 255 kts 333°
2026-04-30 12:45 41.61733 19.67011 6899 ft 263 kts 333°
2026-04-30 12:45 41.63425 19.66005 7349 ft 265 kts 333°
2026-04-30 12:45 41.65107 19.65003 7796 ft 266 kts 333°
2026-04-30 12:45 41.66804 19.63991 8245 ft 267 kts 333°
2026-04-30 12:46 41.68488 19.62984 8689 ft 268 kts 333°
2026-04-30 12:46 41.70205 19.61961 9139 ft 270 kts 333°
2026-04-30 12:46 41.71896 19.60956 9587 ft 271 kts 333°
2026-04-30 12:46 41.73673 19.59896 10050 ft 284 kts 332°
2026-04-30 12:47 41.75472 19.58820 10488 ft 283 kts 332°
2026-04-30 12:47 41.77288 19.57735 10937 ft 295 kts 332°
2026-04-30 12:47 41.79211 19.56571 11388 ft 318 kts 333°
2026-04-30 12:47 41.81325 19.55300 11842 ft 341 kts 333°
2026-04-30 12:48 41.83548 19.53978 12276 ft 357 kts 333°
2026-04-30 12:48 41.85793 19.52638 12712 ft 359 kts 333°
2026-04-30 12:48 41.88104 19.51259 13149 ft 360 kts 333°
2026-04-30 12:48 41.90369 19.49905 13587 ft 362 kts 333°
2026-04-30 12:49 41.92674 19.48522 13979 ft 363 kts 333°
2026-04-30 12:49 41.94996 19.47134 14357 ft 365 kts 333°
2026-04-30 12:49 41.97303 19.45756 14723 ft 367 kts 333°
2026-04-30 12:49 41.99684 19.44445 15102 ft 370 kts 336°
2026-04-30 12:50 42.02097 19.43319 15475 ft 371 kts 338°
2026-04-30 12:50 42.04559 19.42190 15862 ft 373 kts 337°
2026-04-30 12:50 42.07003 19.41051 16229 ft 376 kts 336°
2026-04-30 12:50 42.09493 19.39877 16607 ft 377 kts 336°
2026-04-30 12:51 42.11964 19.38705 16981 ft 379 kts 336°
2026-04-30 12:51 42.14449 19.37530 17351 ft 379 kts 336°
2026-04-30 12:51 42.16934 19.36352 17721 ft 381 kts 336°
2026-04-30 12:51 42.19404 19.35174 18089 ft 382 kts 335°
2026-04-30 12:52 42.21916 19.33971 18475 ft 382 kts 333°
2026-04-30 12:52 42.24355 19.32531 18860 ft 380 kts 328°
2026-04-30 12:52 42.26700 19.30915 19231 ft 381 kts 327°
2026-04-30 12:52 42.29054 19.29295 19616 ft 384 kts 327°
2026-04-30 12:53 42.31453 19.27656 19994 ft 386 kts 327°
2026-04-30 12:53 42.33849 19.26038 20367 ft 388 kts 327°
2026-04-30 12:53 42.36235 19.24402 20737 ft 389 kts 327°
2026-04-30 12:53 42.38678 19.22719 21131 ft 392 kts 327°
2026-04-30 12:54 42.41092 19.21062 21518 ft 392 kts 327°
2026-04-30 12:54 42.43529 19.19395 21912 ft 394 kts 327°
2026-04-30 12:54 42.45991 19.17707 22298 ft 398 kts 327°
2026-04-30 12:54 42.48451 19.16014 22676 ft 400 kts 326°
2026-04-30 12:55 42.50910 19.14297 23058 ft 397 kts 326°
2026-04-30 12:55 42.53359 19.12606 23472 ft 399 kts 326°
2026-04-30 12:55 42.55859 19.10893 23864 ft 402 kts 326°
2026-04-30 12:55 42.58346 19.09180 24258 ft 406 kts 326°
2026-04-30 12:56 42.60862 19.07468 24667 ft 406 kts 326°
2026-04-30 12:56 42.63370 19.05721 25081 ft 408 kts 326°
2026-04-30 12:56 42.65911 19.03952 25472 ft 411 kts 327°
2026-04-30 12:56 42.68492 19.02282 25869 ft 415 kts 327°
2026-04-30 12:57 42.71055 19.00494 26259 ft 415 kts 325°
2026-04-30 12:57 42.73631 18.98662 26668 ft 413 kts 326°
2026-04-30 12:57 42.76173 18.96888 27054 ft 415 kts 326°
2026-04-30 12:57 42.78715 18.95118 27442 ft 412 kts 326°
2026-04-30 12:58 42.81282 18.93348 27858 ft 409 kts 326°
2026-04-30 12:58 42.83791 18.91614 28259 ft 406 kts 325°
2026-04-30 12:58 42.86304 18.89848 28666 ft 408 kts 326°
2026-04-30 12:58 42.88814 18.88145 29064 ft 408 kts 325°
2026-04-30 12:59 42.91353 18.86351 29452 ft 408 kts 324°
2026-04-30 12:59 42.93830 18.84586 29850 ft 400 kts 324°
2026-04-30 12:59 42.96302 18.82893 30254 ft 399 kts 326°
2026-04-30 12:59 42.98762 18.81204 30530 ft 398 kts 324°
2026-04-30 13:00 43.01251 18.79430 30654 ft 406 kts 324°
2026-04-30 13:00 43.03771 18.77635 30787 ft 413 kts 324°
2026-04-30 13:00 43.06303 18.75842 30905 ft 413 kts 324°
2026-04-30 13:00 43.08845 18.74066 31026 ft 408 kts 324°
2026-04-30 13:01 43.11344 18.72307 31155 ft 403 kts 324°
2026-04-30 13:01 43.13811 18.70511 31284 ft 405 kts 323°
2026-04-30 13:01 43.16328 18.68709 31405 ft 406 kts 325°
2026-04-30 13:01 43.18832 18.66970 31526 ft 406 kts 325°
2026-04-30 13:02 43.21365 18.65231 31643 ft 406 kts 324°
2026-04-30 13:02 43.23862 18.63472 31763 ft 405 kts 324°
2026-04-30 13:02 43.26362 18.61708 31879 ft 405 kts 324°
2026-04-30 13:02 43.28864 18.59917 31998 ft 404 kts 324°
2026-04-30 13:03 43.31327 18.58144 32184 ft 403 kts 325°
2026-04-30 13:03 43.33821 18.56394 32554 ft 400 kts 325°
2026-04-30 13:03 43.38825 18.52822 32475 ft 408 kts 325°
2026-04-30 13:04 43.41302 18.51061 32369 ft 404 kts 325°
2026-04-30 13:04 43.43789 18.49285 32265 ft 401 kts 325°
2026-04-30 13:04 43.48809 18.45682 32252 ft 418 kts 326°
2026-04-30 13:05 43.54010 18.41980 32232 ft 418 kts 325°
2026-04-30 13:05 43.56582 18.40138 32209 ft 407 kts 326°
2026-04-30 13:06 43.61525 18.36618 32202 ft 404 kts 326°
2026-04-30 13:06 43.66547 18.33007 32195 ft 408 kts 325°
2026-04-30 13:07 43.71571 18.29363 32179 ft 406 kts 325°
2026-04-30 13:07 43.76563 18.25764 32172 ft 407 kts 325°
2026-04-30 13:08 43.81561 18.22155 32165 ft 406 kts 326°
2026-04-30 13:08 43.86548 18.18545 32435 ft 405 kts 326°
2026-04-30 13:09 43.91611 18.14867 32454 ft 411 kts 326°
2026-04-30 13:09 43.96613 18.11254 32472 ft 407 kts 326°
2026-04-30 13:10 44.01653 18.07594 32463 ft 410 kts 326°
2026-04-30 13:10 44.06685 18.03912 32451 ft 412 kts 327°
2026-04-30 13:11 44.11762 18.00208 32454 ft 410 kts 327°
2026-04-30 13:11 44.16779 17.96541 32440 ft 409 kts 327°
2026-04-30 13:12 44.21831 17.92844 32436 ft 410 kts 327°
2026-04-30 13:12 44.26852 17.89157 32438 ft 410 kts 327°
2026-04-30 13:13 44.34395 17.83600 32433 ft 409 kts 327°
2026-04-30 13:14 44.41929 17.78034 32422 ft 409 kts 328°
2026-04-30 13:14 44.49458 17.72468 32412 ft 409 kts 328°
2026-04-30 13:15 44.57001 17.66855 32419 ft 411 kts 328°
2026-04-30 13:16 44.62042 17.63098 32433 ft 413 kts 329°
2026-04-30 13:16 44.67088 17.59345 32443 ft 411 kts 329°
2026-04-30 13:17 44.74658 17.53672 32453 ft 412 kts 329°
2026-04-30 13:18 44.82243 17.47992 32457 ft 413 kts 329°
2026-04-30 13:18 44.89864 17.42271 32463 ft 414 kts 329°
2026-04-30 13:19 44.94926 17.38454 32466 ft 415 kts 329°
2026-04-30 13:19 45.00006 17.34622 32467 ft 415 kts 329°
2026-04-30 13:20 45.05077 17.30768 32472 ft 415 kts 329°
2026-04-30 13:20 45.10151 17.26912 32495 ft 415 kts 329°
2026-04-30 13:21 45.15230 17.23043 32493 ft 415 kts 330°
2026-04-30 13:22 45.22841 17.17252 32519 ft 416 kts 330°
2026-04-30 13:22 45.30473 17.11427 32535 ft 415 kts 330°
2026-04-30 13:23 45.38083 17.05581 32564 ft 415 kts 330°
2026-04-30 13:24 45.48217 16.97789 32591 ft 417 kts 330°
2026-04-30 13:25 45.58391 16.89927 32621 ft 416 kts 331°
2026-04-30 13:26 45.71090 16.80070 32674 ft 416 kts 331°
2026-04-30 13:28 45.83801 16.70155 32682 ft 419 kts 332°
2026-04-30 13:28 45.91448 16.64160 32667 ft 418 kts 332°
2026-04-30 13:29 46.01679 16.56108 32680 ft 422 kts 332°
2026-04-30 13:31 46.14500 16.45992 32699 ft 420 kts 332°
2026-04-30 13:31 46.22136 16.39922 32195 ft 416 kts 332°
2026-04-30 13:32 46.27158 16.35886 31376 ft 414 kts 333°
2026-04-30 13:32 46.32162 16.31883 30528 ft 413 kts 333°
2026-04-30 13:33 46.37345 16.28360 29596 ft 408 kts 341°
2026-04-30 13:33 46.42786 16.26323 28665 ft 404 kts 351°
2026-04-30 13:34 46.45520 16.25660 28202 ft 403 kts 352°
2026-04-30 13:34 46.53797 16.23645 26805 ft 400 kts 352°
2026-04-30 13:35 46.56519 16.22988 26340 ft 399 kts 352°
2026-04-30 13:35 46.61962 16.21683 25413 ft 397 kts 352°
2026-04-30 13:36 46.67408 16.20385 24469 ft 395 kts 352°
2026-04-30 13:36 46.70115 16.19741 24001 ft 394 kts 352°
2026-04-30 13:36 46.75480 16.18467 23066 ft 391 kts 352°
2026-04-30 13:37 46.78171 16.17833 22594 ft 390 kts 352°
2026-04-30 13:37 46.83506 16.16563 21662 ft 388 kts 352°
2026-04-30 13:38 46.88782 16.15297 20733 ft 385 kts 352°
2026-04-30 13:38 46.91421 16.14666 20269 ft 384 kts 352°
2026-04-30 13:38 46.96648 16.13417 19342 ft 381 kts 351°
2026-04-30 13:39 47.01836 16.12161 18420 ft 378 kts 351°
2026-04-30 13:39 47.07005 16.10901 17505 ft 376 kts 351°
2026-04-30 13:40 47.09595 16.10268 17046 ft 374 kts 351°
2026-04-30 13:40 47.12152 16.09642 16585 ft 373 kts 351°
2026-04-30 13:40 47.14698 16.09022 16126 ft 372 kts 351°
2026-04-30 13:40 47.16363 16.08620 15836 ft 371 kts 352°
2026-04-30 13:41 47.19743 16.07805 15219 ft 369 kts 352°
2026-04-30 13:41 47.22276 16.07188 14767 ft 368 kts 351°
2026-04-30 13:41 47.24811 16.06566 14299 ft 367 kts 352°
2026-04-30 13:41 47.27290 16.05956 13853 ft 365 kts 352°
2026-04-30 13:42 47.29805 16.05338 13408 ft 364 kts 352°
2026-04-30 13:42 47.32282 16.04732 12958 ft 363 kts 352°
2026-04-30 13:42 47.37243 16.03998 12024 ft 358 kts
2026-04-30 13:43 47.39599 16.04893 11552 ft 343 kts 19°
2026-04-30 13:43 47.41792 16.06019 11452 ft 320 kts 19°
2026-04-30 13:43 47.43838 16.07040 11331 ft 300 kts 18°
2026-04-30 13:43 47.45755 16.07979 11221 ft 282 kts 18°
2026-04-30 13:44 47.47539 16.08858 11109 ft 266 kts 19°
2026-04-30 13:44 47.49262 16.09707 10933 ft 256 kts 19°
2026-04-30 13:44 47.50929 16.10538 10764 ft 256 kts 19°
2026-04-30 13:44 47.52620 16.11381 10588 ft 258 kts 19°
2026-04-30 13:45 47.55927 16.13324 10188 ft 256 kts 37°
2026-04-30 13:45 47.57175 16.15139 9896 ft 250 kts 46°
2026-04-30 13:45 47.58337 16.17032 9580 ft 244 kts 44°
2026-04-30 13:46 47.59521 16.18770 9276 ft 238 kts 42°
2026-04-30 13:46 47.60708 16.20445 8969 ft 235 kts 42°
2026-04-30 13:46 47.61873 16.22079 8657 ft 231 kts 42°
2026-04-30 13:46 47.63036 16.23717 8344 ft 227 kts 42°
2026-04-30 13:47 47.64172 16.25315 8036 ft 223 kts 42°
2026-04-30 13:47 47.65279 16.26876 7722 ft 220 kts 41°
2026-04-30 13:47 47.66373 16.28419 7439 ft 214 kts 41°
2026-04-30 13:47 47.67438 16.29922 7134 ft 208 kts 41°
2026-04-30 13:48 47.68471 16.31379 6812 ft 204 kts 41°
2026-04-30 13:48 47.69484 16.32805 6499 ft 199 kts 41°
2026-04-30 13:48 47.70478 16.34205 6183 ft 196 kts 41°
2026-04-30 13:48 47.71467 16.35595 5877 ft 196 kts 41°
2026-04-30 13:49 47.72447 16.36973 5580 ft 196 kts 42°
2026-04-30 13:49 47.73434 16.38377 5268 ft 196 kts 42°
2026-04-30 13:49 47.74403 16.39751 4986 ft 195 kts 41°
2026-04-30 13:49 47.75380 16.41137 4666 ft 192 kts 41°
2026-04-30 13:50 47.76326 16.42483 4375 ft 186 kts 41°
2026-04-30 13:50 47.78174 16.45094 3814 ft 183 kts 41°
2026-04-30 13:50 47.79092 16.46388 3542 ft 184 kts 41°
2026-04-30 13:51 47.80006 16.47690 3266 ft 182 kts 41°
2026-04-30 13:51 47.80922 16.48987 3058 ft 178 kts 41°
2026-04-30 13:51 47.81822 16.50265 3071 ft 183 kts 41°
2026-04-30 13:51 47.82736 16.51560 3047 ft 181 kts 41°
2026-04-30 13:52 47.83637 16.52842 3039 ft 173 kts 41°
2026-04-30 13:52 47.84491 16.54062 3063 ft 170 kts 41°
2026-04-30 13:52 47.85341 16.55277 3065 ft 169 kts 41°
2026-04-30 13:52 47.86196 16.56495 3051 ft 169 kts 41°
2026-04-30 13:53 47.87034 16.57690 3044 ft 161 kts 42°
2026-04-30 13:53 47.87809 16.58794 3073 ft 153 kts 40°
2026-04-30 13:53 47.88596 16.59899 3060 ft 157 kts 41°
2026-04-30 13:53 47.89119 16.60650 3054 ft 154 kts 41°
2026-04-30 13:54 47.90230 16.61930 3042 ft 154 kts 18°
2026-04-30 13:54 47.91275 16.62262 3073 ft 154 kts 10°
2026-04-30 13:54 47.92321 16.62558 3050 ft 153 kts 11°
2026-04-30 13:54 47.93366 16.62856 3061 ft 154 kts 11°
2026-04-30 13:55 47.94418 16.63161 3059 ft 155 kts 11°
2026-04-30 13:55 47.95477 16.63458 3057 ft 154 kts 11°
2026-04-30 13:55 47.96526 16.63743 3055 ft 153 kts 11°
2026-04-30 13:55 47.97595 16.63776 2858 ft 150 kts 351°
2026-04-30 13:56 47.98575 16.63421 2749 ft 146 kts 348°
2026-04-30 13:56 47.99580 16.63015 2538 ft 151 kts 348°
2026-04-30 13:56 48.00611 16.62590 2299 ft 152 kts 347°
2026-04-30 13:56 48.01600 16.62180 2091 ft 146 kts 346°
2026-04-30 13:57 48.02562 16.61772 1896 ft 139 kts 346°
2026-04-30 13:57 48.03491 16.61357 1723 ft 142 kts 346°
2026-04-30 13:57 48.04457 16.60863 1578 ft 155 kts 347°
2026-04-30 13:57 48.05526 16.60460 1482 ft 158 kts 349°
2026-04-30 13:58 48.06597 16.60068 1161 ft 159 kts 347°
2026-04-30 13:58 48.08629 16.59198 629 ft 145 kts 348°
2026-04-30 13:58 48.09576 16.58828 598 ft 130 kts 347°
2026-04-30 13:59 48.10216 16.58573 600 ft 60 kts 343°
2026-04-30 13:59 48.10379 16.58497 600 ft 0 kts 338°
2026-04-30 13:59 48.10400 16.58483 601 ft 5 kts 334°
2026-04-30 14:00 48.10447 16.58458 601 ft 10 kts 343°
2026-04-30 14:00 48.10610 16.58380 600 ft 9 kts 337°
2026-04-30 14:00 48.10665 16.58345 600 ft 8 kts 330°
2026-04-30 14:01 48.10717 16.58290 600 ft 7 kts 320°
2026-04-30 14:01 48.10747 16.58249 600 ft 4 kts 314°
2026-04-30 14:01 48.10767 16.58222 600 ft 4 kts 318°
2026-04-30 14:01 48.10793 16.58182 600 ft 5 kts 311°
2026-04-30 14:02 48.10812 16.58146 600 ft 3 kts 311°
2026-04-30 14:02 48.10838 16.58109 600 ft 5 kts 316°
2026-04-30 14:02 48.10860 16.58075 600 ft 3 kts 310°
2026-04-30 14:02 48.10880 16.58042 599 ft 3 kts 309°
2026-04-30 14:03 48.10897 16.58006 599 ft 4 kts 303°
2026-04-30 14:03 48.10913 16.57978 599 ft 4 kts 324°
2026-04-30 14:03 48.10963 16.57962 598 ft 9 kts 355°
2026-04-30 14:03 48.11024 16.57944 598 ft 9 kts 339°
2026-04-30 14:04 48.11084 16.57902 597 ft 9 kts 321°
2026-04-30 14:04 48.11117 16.57832 598 ft 8 kts 295°
2026-04-30 14:04 48.11142 16.57740 597 ft 10 kts 296°
2026-04-30 14:04 48.11177 16.57643 597 ft 10 kts 294°
2026-04-30 14:05 48.11209 16.57559 599 ft 8 kts 299°
2026-04-30 14:05 48.11240 16.57464 601 ft 11 kts 294°
2026-04-30 14:05 48.11277 16.57342 603 ft 14 kts 292°
2026-04-30 14:05 48.11314 16.57229 606 ft 9 kts 294°
2026-04-30 14:06 48.11348 16.57126 607 ft 12 kts 293°
2026-04-30 14:06 48.11430 16.56901 607 ft 13 kts 316°
2026-04-30 14:07 48.11592 16.56871 607 ft 11 kts 302°
2026-04-30 14:07 48.11636 16.56742 605 ft 14 kts 297°
2026-04-30 14:07 48.11706 16.56699 603 ft 9 kts 20°
2026-04-30 14:08 48.11735 16.56737 602 ft 0 kts 47°